Hourly Weather Sudivka

Today, 15 January, Friday

Time Temperature Precipitation Wind Pressure Humidity
00:00 -6°C° 0 mm 2 mps 749 mmHg 89%
01:00 -7°C° 0 mm 2 mps 749 mmHg 89%
02:00 -7°C° 0 mm 2 mps 749 mmHg 89%
03:00 -7°C° 0 mm 2 mps 749 mmHg 90%
04:00 -7°C° 0 mm 2 mps 749 mmHg 91%
05:00 -7°C° 0 mm 2 mps 749 mmHg 91%
06:00 -8°C° 0 mm 3 mps 749 mmHg 92%
07:00 -8°C° 0 mm 3 mps 749 mmHg 92%
08:00 -8°C° 0 mm 3 mps 749 mmHg 91%
09:00 -7°C° 0 mm 3 mps 750 mmHg 90%
10:00 -6°C° 0 mm 3 mps 750 mmHg 89%
11:00 -5°C° 0 mm 4 mps 750 mmHg 88%
12:00 -4°C° 0 mm 3 mps 750 mmHg 89%
13:00 -4°C° 0 mm 3 mps 750 mmHg 89%
14:00 -4°C° 0 mm 3 mps 750 mmHg 89%
15:00 -5°C° 0.1 mm 4 mps 750 mmHg 91%
16:00 -7°C° 0.1 mm 4 mps 750 mmHg 93%
17:00 -8°C° 0.1 mm 5 mps 750 mmHg 95%
18:00 -10°C° 0.1 mm 5 mps 750 mmHg 93%
19:00 -11°C° 0.1 mm 5 mps 751 mmHg 91%
20:00 -12°C° 0.1 mm 5 mps 751 mmHg 90%
21:00 -12°C° 0 mm 4 mps 752 mmHg 89%
22:00 -14°C° 0 mm 4 mps 752 mmHg 89%
23:00 -13°C° 0 mm 3 mps 752 mmHg 89%

Tomorrow, 16 January, Saturday

Time Temperature Precipitation Wind Pressure Humidity
00:00 -14°C° 0 mm 3 mps 753 mmHg 89%
01:00 -14°C° 0 mm 3 mps 753 mmHg 90%
02:00 -15°C° 0 mm 3 mps 753 mmHg 91%
03:00 -16°C° 0 mm 4 mps 753 mmHg 91%
04:00 -16°C° 0 mm 4 mps 753 mmHg 91%
05:00 -16°C° 0 mm 4 mps 753 mmHg 92%
06:00 -16°C° 0 mm 4 mps 754 mmHg 92%
07:00 -16°C° 0 mm 4 mps 754 mmHg 92%
08:00 -16°C° 0 mm 4 mps 754 mmHg 92%
09:00 -15°C° 0 mm 4 mps 755 mmHg 90%
10:00 -14°C° 0 mm 4 mps 755 mmHg 87%
11:00 -12°C° 0 mm 4 mps 755 mmHg 84%
12:00 -12°C° 0 mm 4 mps 755 mmHg 84%
13:00 -11°C° 0 mm 4 mps 755 mmHg 84%
14:00 -11°C° 0 mm 4 mps 755 mmHg 83%
15:00 -12°C° 0 mm 3 mps 755 mmHg 86%
16:00 -13°C° 0 mm 3 mps 755 mmHg 88%
17:00 -13°C° 0 mm 2 mps 755 mmHg 90%
18:00 -13°C° 0 mm 2 mps 756 mmHg 91%
19:00 -14°C° 0 mm 2 mps 756 mmHg 91%
20:00 -14°C° 0 mm 2 mps 756 mmHg 92%
21:00 -15°C° 0 mm 2 mps 756 mmHg 93%
22:00 -15°C° 0 mm 2 mps 756 mmHg 93%
23:00 -16°C° 0 mm 2 mps 756 mmHg 94%

Day after tomorrow, 17 January, Sunday

Time Temperature Precipitation Wind Pressure Humidity
00:00 -16°C° 0 mm 2 mps 756 mmHg 94%
01:00 -16°C° 0 mm 2 mps 756 mmHg 94%
02:00 -17°C° 0 mm 2 mps 756 mmHg 93%
03:00 -17°C° 0 mm 2 mps 756 mmHg 93%
04:00 -18°C° 0 mm 2 mps 756 mmHg 93%
05:00 -18°C° 0 mm 2 mps 756 mmHg 93%
06:00 -21°C° 0 mm 3 mps 756 mmHg 93%
07:00 -21°C° 0 mm 3 mps 756 mmHg 93%
08:00 -21°C° 0 mm 3 mps 756 mmHg 94%
09:00 -18°C° 0 mm 2 mps 756 mmHg 90%
10:00 -17°C° 0 mm 2 mps 756 mmHg 87%
11:00 -16°C° 0 mm 2 mps 756 mmHg 84%
12:00 -16°C° 0 mm 2 mps 756 mmHg 84%
13:00 -17°C° 0 mm 3 mps 756 mmHg 85%
14:00 -17°C° 0 mm 3 mps 756 mmHg 85%
15:00 -17°C° 0 mm 3 mps 756 mmHg 87%
16:00 -18°C° 0 mm 3 mps 756 mmHg 89%
17:00 -17°C° 0 mm 2 mps 756 mmHg 91%
18:00 -17°C° 0 mm 2 mps 756 mmHg 91%
19:00 -18°C° 0 mm 3 mps 756 mmHg 91%
20:00 -18°C° 0 mm 3 mps 756 mmHg 91%
21:00 -19°C° 0 mm 3 mps 756 mmHg 91%
22:00 -18°C° 0 mm 2 mps 756 mmHg 92%
23:00 -18°C° 0 mm 2 mps 756 mmHg 92%

18 January, Monday

Time Temperature Precipitation Wind Pressure Humidity
00:00 -18°C° 0 mm 2 mps 756 mmHg 92%
01:00 -18°C° 0 mm 2 mps 756 mmHg 93%
02:00 -19°C° 0 mm 2 mps 756 mmHg 93%
03:00 -18°C° 0 mm 2 mps 756 mmHg 93%
04:00 -18°C° 0 mm 2 mps 756 mmHg 93%
05:00 -18°C° 0 mm 2 mps 756 mmHg 94%
06:00 -18°C° 0 mm 2 mps 757 mmHg 94%
07:00 -18°C° 0 mm 2 mps 757 mmHg 94%
08:00 -18°C° 0 mm 2 mps 757 mmHg 94%
09:00 -17°C° 0 mm 2 mps 757 mmHg 91%
10:00 -16°C° 0 mm 2 mps 757 mmHg 89%
11:00 -15°C° 0 mm 2 mps 757 mmHg 86%
12:00 -15°C° 0 mm 2 mps 757 mmHg 86%
13:00 -15°C° 0 mm 2 mps 757 mmHg 86%
14:00 -14°C° 0 mm 2 mps 757 mmHg 85%
15:00 -15°C° 0 mm 2 mps 757 mmHg 88%
16:00 -14°C° 0 mm 1 mps 757 mmHg 90%
17:00 -14°C° 0 mm 1 mps 757 mmHg 93%
18:00 -14°C° 0 mm 1 mps 757 mmHg 94%
19:00 -14°C° 0 mm 0 mps 758 mmHg 94%
20:00 -14°C° 0 mm 0 mps 758 mmHg 95%
21:00 -14°C° 0 mm 0 mps 758 mmHg 95%
22:00 -14°C° 0 mm 1 mps 758 mmHg 95%
23:00 -14°C° 0 mm 1 mps 758 mmHg 95%

19 January, Tuesday

Time Temperature Precipitation Wind Pressure Humidity
00:00 -14°C° 0 mm 1 mps 758 mmHg 95%
01:00 -14°C° 0 mm 1 mps 758 mmHg 95%
02:00 -14°C° 0 mm 1 mps 758 mmHg 95%
03:00 -14°C° 0 mm 1 mps 758 mmHg 95%
04:00 -14°C° 0 mm 1 mps 758 mmHg 95%
05:00 -14°C° 0 mm 1 mps 758 mmHg 95%
06:00 -14°C° 0 mm 1 mps 758 mmHg 95%
07:00 -15°C° 0 mm 1 mps 759 mmHg 95%
08:00 -15°C° 0 mm 1 mps 759 mmHg 95%
09:00 -14°C° 0 mm 1 mps 759 mmHg 93%
10:00 -15°C° 0 mm 2 mps 759 mmHg 90%
11:00 -14°C° 0 mm 2 mps 760 mmHg 87%
12:00 -14°C° 0 mm 2 mps 760 mmHg 86%
13:00 -14°C° 0 mm 2 mps 760 mmHg 85%
14:00 -14°C° 0 mm 2 mps 760 mmHg 84%
15:00 -14°C° 0 mm 2 mps 760 mmHg 87%
16:00 -15°C° 0 mm 2 mps 760 mmHg 90%
17:00 -16°C° 0 mm 2 mps 760 mmHg 92%
18:00 -16°C° 0 mm 2 mps 761 mmHg 93%
19:00 -16°C° 0 mm 2 mps 761 mmHg 93%
20:00 -16°C° 0 mm 2 mps 762 mmHg 93%
21:00 -17°C° 0 mm 2 mps 762 mmHg 93%
22:00 -17°C° 0 mm 2 mps 762 mmHg 94%
23:00 -17°C° 0 mm 2 mps 763 mmHg 94%

20 January, Wednesday

Time Temperature Precipitation Wind Pressure Humidity
00:00 -17°C° 0 mm 2 mps 763 mmHg 94%
01:00 -18°C° 0 mm 2 mps 763 mmHg 94%
02:00 -18°C° 0 mm 2 mps 763 mmHg 94%
03:00 -16°C° 0 mm 1 mps 764 mmHg 94%
04:00 -16°C° 0 mm 1 mps 764 mmHg 94%
05:00 -17°C° 0 mm 1 mps 764 mmHg 94%
06:00 -17°C° 0 mm 1 mps 764 mmHg 94%
07:00 -17°C° 0 mm 1 mps 765 mmHg 93%
08:00 -17°C° 0 mm 0 mps 765 mmHg 93%
09:00 -15°C° 0 mm 1 mps 765 mmHg 90%
10:00 -14°C° 0 mm 1 mps 765 mmHg 88%
11:00 -12°C° 0 mm 1 mps 765 mmHg 85%
12:00 -12°C° 0 mm 1 mps 765 mmHg 84%
13:00 -11°C° 0 mm 1 mps 765 mmHg 83%
14:00 -10°C° 0 mm 1 mps 765 mmHg 83%
15:00 -11°C° 0 mm 1 mps 765 mmHg 85%
16:00 -12°C° 0 mm 1 mps 765 mmHg 88%
17:00 -13°C° 0 mm 1 mps 766 mmHg 90%
18:00 -15°C° 0 mm 2 mps 766 mmHg 91%
19:00 -15°C° 0 mm 2 mps 766 mmHg 91%
20:00 -15°C° 0 mm 2 mps 766 mmHg 91%
21:00 -15°C° 0 mm 2 mps 766 mmHg 91%
22:00 -15°C° 0 mm 2 mps 766 mmHg 91%
23:00 -15°C° 0 mm 2 mps 766 mmHg 91%
Show more